Malmstrom AFB, MT

2:57 PM MDT on October 22, 2017 (GMT -0600)
Malmstrom AFB

Weather History for KGFA - February, 2013

Change the Weather History Date:

Tuesday, February 12, 2013

  Actual Average (KGTF) Record (KGTF)
Temperature  
Mean Temperature 36 °F -  
Max Temperature 45 °F 37 °F 67 °F (1934)
Min Temperature 26 °F 17 °F -21 °F (1936)
Degree Days  
Heating Degree Days 30    
Moisture  
Dew Point 21 °F    
Average Humidity 55    
Maximum Humidity 72    
Minimum Humidity 38    
Precipitation  
Precipitation 0.00 in - - ()
Sea Level Pressure  
Sea Level Pressure 30.06 in    
Wind  
Wind Speed 19 mph (SSW)    
Max Wind Speed 34 mph    
Max Gust Speed 43 mph    
Visibility 10 miles    
Events      
Averages and records for this station are not official NWS values.
T = Trace of Precipitation, MM = Missing Value Source: NWS Daily Summary

Daily Weather History Graph

Daily Weather History Graph

Search for Another Location

Airport or City:

Trip Planner

Search our weather history database for the weather conditions in past years. The results will help you decide how hot, cold, wet, or windy it might be!

Date:

Astronomy

Feb. 12, 2013 Rise Set
Actual Time 7:34 AM MST 5:44 PM MST
Civil Twilight 7:02 AM MST 6:15 PM MST
Nautical Twilight 6:26 AM MST 6:52 PM MST
Astronomical Twilight 5:50 AM MST 7:27 PM MST
Moon 8:18 AM MST (2/12) 9:06 PM MST (2/12)
Length of Visible Light 11h 13m
Length of Day
10h 09m
Waxing Crescent, 8% of the Moon is Illuminated
Feb 12
Waxing Crescent
Feb 17
First Quarter
Feb 25
Full
Mar 4
Last Quarter
Mar 11
New

Hourly Weather History & Observations

Time (MST) Temp. Windchill Dew Point Humidity Pressure Visibility Wind Dir Wind Speed Gust Speed Precip Events Conditions
12:56 AM 26.1 °F 14.0 °F 18.0 °F 71% 30.09 in 10.0 mi South 15.0 mph - N/A   Clear
1:56 AM 26.1 °F 14.0 °F 18.0 °F 71% 30.08 in 10.0 mi South 15.0 mph - N/A   Clear
2:56 AM 27.0 °F 15.2 °F 19.0 °F 72% 30.09 in 10.0 mi South 15.0 mph - N/A   Clear
3:56 AM 30.9 °F 19.1 °F 19.0 °F 61% 30.08 in 10.0 mi SSW 18.4 mph - N/A   Clear
4:56 AM 32.0 °F 21.2 °F 21.0 °F 64% 30.09 in 10.0 mi SSW 16.1 mph - N/A   Overcast
5:56 AM 32.0 °F 21.6 °F 21.0 °F 64% 30.10 in 10.0 mi SSW 15.0 mph - N/A   Overcast
6:56 AM 28.0 °F 17.5 °F 19.9 °F 72% 30.13 in 10.0 mi SSW 12.7 mph - N/A   Clear
7:56 AM 30.0 °F 20.0 °F 21.0 °F 69% 30.14 in 10.0 mi SSW 12.7 mph - N/A   Partly Cloudy
8:56 AM 35.1 °F 24.1 °F 21.0 °F 57% 30.14 in 10.0 mi SSW 19.6 mph - N/A   Overcast
9:56 AM 37.0 °F 27.0 °F 21.9 °F 54% 30.14 in 10.0 mi SSW 18.4 mph - N/A   Overcast
10:56 AM 39.9 °F 31.4 °F 21.9 °F 49% 30.13 in 10.0 mi SW 16.1 mph - N/A   Overcast
11:56 AM 44.1 °F 35.4 °F 21.0 °F 40% 30.11 in 10.0 mi SW 21.9 mph 26.5 mph N/A   Partly Cloudy
12:56 PM 45.0 °F 36.9 °F 21.0 °F 39% 30.09 in 10.0 mi SW 20.7 mph 32.2 mph N/A   Scattered Clouds
1:56 PM 44.1 °F 35.2 °F 21.0 °F 40% 30.06 in 10.0 mi SW 23.0 mph 32.2 mph N/A   Clear
2:56 PM 44.1 °F 35.0 °F 21.9 °F 42% 30.04 in 10.0 mi SSW 24.2 mph 33.4 mph N/A   Clear
3:56 PM 44.1 °F 34.4 °F 19.9 °F 38% 30.04 in 10.0 mi SW 27.6 mph 35.7 mph N/A   Clear
4:56 PM 42.1 °F 32.6 °F 21.9 °F 45% 30.02 in 10.0 mi SSW 23.0 mph 33.4 mph N/A   Clear
5:56 PM 37.9 °F 26.6 °F 21.9 °F 53% 30.03 in 10.0 mi SSW 25.3 mph - N/A   Clear
6:56 PM 37.0 °F 25.4 °F 23.0 °F 57% 30.02 in 10.0 mi SSW 25.3 mph - N/A   Clear
7:56 PM 37.9 °F 26.6 °F 23.0 °F 55% 30.01 in 10.0 mi SSW 25.3 mph 34.5 mph N/A   Clear
8:56 PM 39.0 °F 27.8 °F 23.0 °F 53% 29.96 in 10.0 mi SSW 26.5 mph 35.7 mph N/A   Clear
9:56 PM 39.9 °F 28.6 °F 21.9 °F 49% 29.95 in 10.0 mi SSW 28.8 mph 38.0 mph N/A   Partly Cloudy
10:56 PM 39.9 °F 27.6 °F 23.0 °F 51% 29.89 in 10.0 mi SSW 34.5 mph 41.4 mph N/A   Clear
11:56 PM 39.9 °F 27.8 °F 23.0 °F 51% 29.90 in 10.0 mi SSW 33.4 mph 42.6 mph N/A   Clear